• în România
  • Lista ţărilor
  • Pe 7 zile
  • Temperatura apei
  • Hartă satelitară
  • Meteo pe hartă
  • Widget-uri
  • user-avatar
    Intrare

    Meteo pe oră la Refandy

    Astăzi, 18 Octombrie, Joi

    Timp Temperatura Precipitaţii Vânt Presiune Umiditate
    00:00 +1°C° 0 mm 4 m/s 748 mmHg 82%
    01:00 +1°C° 0 mm 4 m/s 748 mmHg 84%
    02:00 +1°C° 0 mm 4 m/s 749 mmHg 85%
    03:00 0°C° 0 mm 4 m/s 749 mmHg 87%
    04:00 0°C° 0 mm 4 m/s 749 mmHg 88%
    05:00 0°C° 0 mm 4 m/s 749 mmHg 89%
    06:00 -1°C° 0 mm 4 m/s 749 mmHg 90%
    07:00 -1°C° 0 mm 4 m/s 749 mmHg 92%
    08:00 0°C° 0 mm 4 m/s 749 mmHg 88%
    09:00 0°C° 0 mm 4 m/s 749 mmHg 85%
    10:00 +1°C° 0 mm 5 m/s 750 mmHg 82%
    11:00 +3°C° 0 mm 4 m/s 750 mmHg 79%
    12:00 +3°C° 0 mm 4 m/s 750 mmHg 77%
    13:00 +3°C° 0 mm 4 m/s 750 mmHg 75%
    14:00 +4°C° 0 mm 4 m/s 750 mmHg 74%
    15:00 +4°C° 0 mm 3 m/s 749 mmHg 74%
    16:00 +4°C° 0 mm 3 m/s 749 mmHg 74%
    17:00 +3°C° 0 mm 3 m/s 749 mmHg 78%
    18:00 +3°C° 0 mm 2 m/s 749 mmHg 83%
    19:00 +3°C° 0 mm 2 m/s 749 mmHg 87%
    20:00 +3°C° 0 mm 2 m/s 749 mmHg 88%
    21:00 +2°C° 0 mm 2 m/s 749 mmHg 89%
    22:00 +2°C° 0 mm 2 m/s 749 mmHg 90%
    23:00 +3°C° 0 mm 2 m/s 748 mmHg 89%

    Mâine, 19 Octombrie, Vineri

    Timp Temperatura Precipitaţii Vânt Presiune Umiditate
    00:00 +2°C° 0 mm 3 m/s 748 mmHg 87%
    01:00 +3°C° 0 mm 3 m/s 747 mmHg 86%
    02:00 +3°C° 0.1 mm 3 m/s 747 mmHg 86%
    03:00 +3°C° 0.1 mm 4 m/s 746 mmHg 86%
    04:00 +4°C° 0.1 mm 4 m/s 746 mmHg 86%
    05:00 +4°C° 0 mm 4 m/s 746 mmHg 88%
    06:00 +4°C° 0 mm 4 m/s 745 mmHg 90%
    07:00 +4°C° 0 mm 4 m/s 745 mmHg 92%
    08:00 +4°C° 0 mm 4 m/s 745 mmHg 92%
    09:00 +5°C° 0 mm 4 m/s 745 mmHg 92%
    10:00 +5°C° 0 mm 4 m/s 745 mmHg 92%
    11:00 +6°C° 0 mm 4 m/s 745 mmHg 92%
    12:00 +7°C° 0 mm 3 m/s 745 mmHg 91%
    13:00 +7°C° 0 mm 3 m/s 745 mmHg 90%
    14:00 +7°C° 0 mm 3 m/s 745 mmHg 90%
    15:00 +7°C° 0 mm 3 m/s 745 mmHg 91%
    16:00 +7°C° 0 mm 3 m/s 745 mmHg 91%
    17:00 +7°C° 0 mm 3 m/s 745 mmHg 91%
    18:00 +7°C° 0 mm 3 m/s 744 mmHg 92%
    19:00 +7°C° 0 mm 3 m/s 744 mmHg 92%
    20:00 +7°C° 0 mm 3 m/s 744 mmHg 93%
    21:00 +7°C° 0 mm 3 m/s 744 mmHg 94%
    22:00 +7°C° 0 mm 3 m/s 744 mmHg 94%
    23:00 +7°C° 0 mm 3 m/s 743 mmHg 94%

    Poimâine, 20 Octombrie, Sâmbătă

    Timp Temperatura Precipitaţii Vânt Presiune Umiditate
    00:00 +6°C° 0 mm 4 m/s 743 mmHg 95%
    01:00 +6°C° 0 mm 4 m/s 743 mmHg 95%
    02:00 +7°C° 0.4 mm 4 m/s 743 mmHg 95%
    03:00 +7°C° 0.4 mm 4 m/s 743 mmHg 96%
    04:00 +7°C° 0.4 mm 4 m/s 742 mmHg 97%
    05:00 +8°C° 1.7 mm 4 m/s 742 mmHg 96%
    06:00 +8°C° 1.7 mm 4 m/s 742 mmHg 96%
    07:00 +8°C° 1.7 mm 4 m/s 741 mmHg 96%
    08:00 +8°C° 2.3 mm 4 m/s 741 mmHg 96%
    09:00 +8°C° 2.3 mm 4 m/s 741 mmHg 96%
    10:00 +8°C° 2.3 mm 4 m/s 741 mmHg 96%
    11:00 +8°C° 1.6 mm 4 m/s 741 mmHg 95%
    12:00 +8°C° 1.6 mm 4 m/s 741 mmHg 95%
    13:00 +8°C° 1.6 mm 4 m/s 740 mmHg 94%
    14:00 +9°C° 1 mm 3 m/s 741 mmHg 92%
    15:00 +9°C° 1 mm 3 m/s 741 mmHg 91%
    16:00 +9°C° 1 mm 3 m/s 741 mmHg 89%
    17:00 +8°C° 0 mm 3 m/s 741 mmHg 89%
    18:00 +7°C° 0 mm 3 m/s 742 mmHg 89%
    19:00 +5°C° 0 mm 3 m/s 742 mmHg 88%
    20:00 +4°C° 0 mm 3 m/s 743 mmHg 89%
    21:00 +4°C° 0 mm 3 m/s 743 mmHg 90%
    22:00 +4°C° 0 mm 2 m/s 744 mmHg 90%
    23:00 +4°C° 0 mm 2 m/s 744 mmHg 91%

    21 Octombrie, Duminică

    Timp Temperatura Precipitaţii Vânt Presiune Umiditate
    00:00 +4°C° 0 mm 2 m/s 744 mmHg 92%
    01:00 +3°C° 0 mm 2 m/s 744 mmHg 93%
    02:00 +3°C° 0 mm 2 m/s 745 mmHg 94%
    03:00 +3°C° 0 mm 2 m/s 745 mmHg 95%
    04:00 +2°C° 0 mm 2 m/s 745 mmHg 95%
    05:00 +2°C° 0 mm 2 m/s 745 mmHg 96%
    06:00 +2°C° 0 mm 2 m/s 746 mmHg 96%
    07:00 +2°C° 0 mm 2 m/s 746 mmHg 96%
    08:00 +3°C° 0 mm 2 m/s 746 mmHg 95%
    09:00 +3°C° 0 mm 3 m/s 747 mmHg 93%
    10:00 +3°C° 0 mm 3 m/s 747 mmHg 91%
    11:00 +4°C° 0 mm 3 m/s 747 mmHg 90%
    12:00 +4°C° 0 mm 3 m/s 748 mmHg 89%
    13:00 +4°C° 0 mm 3 m/s 748 mmHg 87%
    14:00 +4°C° 0.1 mm 3 m/s 748 mmHg 87%
    15:00 +4°C° 0.1 mm 3 m/s 748 mmHg 87%
    16:00 +4°C° 0.1 mm 3 m/s 749 mmHg 86%
    17:00 +4°C° 0.1 mm 3 m/s 749 mmHg 87%
    18:00 +3°C° 0.1 mm 3 m/s 749 mmHg 88%
    19:00 +3°C° 0.1 mm 3 m/s 750 mmHg 89%
    20:00 +3°C° 0 mm 2 m/s 750 mmHg 90%
    21:00 +2°C° 0 mm 2 m/s 750 mmHg 90%
    22:00 +2°C° 0 mm 2 m/s 751 mmHg 91%
    23:00 +1°C° 0 mm 2 m/s 751 mmHg 91%

    22 Octombrie, Luni

    Timp Temperatura Precipitaţii Vânt Presiune Umiditate
    00:00 +1°C° 0 mm 2 m/s 751 mmHg 91%
    01:00 +1°C° 0 mm 1 m/s 751 mmHg 91%
    02:00 +1°C° 0 mm 1 m/s 752 mmHg 91%
    03:00 +1°C° 0 mm 1 m/s 752 mmHg 91%
    04:00 +1°C° 0 mm 1 m/s 752 mmHg 90%
    05:00 +1°C° 0 mm 1 m/s 752 mmHg 90%
    06:00 0°C° 0 mm 1 m/s 752 mmHg 90%
    07:00 0°C° 0 mm 1 m/s 752 mmHg 89%
    08:00 +1°C° 0 mm 1 m/s 753 mmHg 83%
    09:00 +2°C° 0 mm 1 m/s 753 mmHg 76%
    10:00 +3°C° 0 mm 1 m/s 753 mmHg 70%
    11:00 +3°C° 0 mm 1 m/s 753 mmHg 67%
    12:00 +4°C° 0 mm 1 m/s 753 mmHg 63%
    13:00 +5°C° 0 mm 1 m/s 753 mmHg 60%
    14:00 +4°C° 0 mm 1 m/s 753 mmHg 63%
    15:00 +4°C° 0 mm 1 m/s 752 mmHg 67%
    16:00 +4°C° 0 mm 1 m/s 752 mmHg 70%
    17:00 +3°C° 0 mm 1 m/s 752 mmHg 73%
    18:00 +2°C° 0 mm 1 m/s 752 mmHg 77%
    19:00 +2°C° 0 mm 1 m/s 752 mmHg 80%
    20:00 +1°C° 0 mm 2 m/s 752 mmHg 82%
    21:00 -1°C° 0 mm 2 m/s 752 mmHg 83%
    22:00 -1°C° 0 mm 2 m/s 751 mmHg 84%
    23:00 -1°C° 0 mm 3 m/s 751 mmHg 84%

    23 Octombrie, Marţi

    Timp Temperatura Precipitaţii Vânt Presiune Umiditate
    00:00 -1°C° 0 mm 3 m/s 751 mmHg 84%
    01:00 -1°C° 0 mm 3 m/s 751 mmHg 85%
    02:00 -1°C° 0 mm 3 m/s 751 mmHg 85%
    03:00 -2°C° 0 mm 4 m/s 750 mmHg 85%
    04:00 -2°C° 0 mm 4 m/s 750 mmHg 85%
    05:00 -2°C° 0 mm 4 m/s 750 mmHg 86%
    06:00 -2°C° 0 mm 4 m/s 750 mmHg 87%
    07:00 -2°C° 0 mm 4 m/s 750 mmHg 88%
    08:00 0°C° 0 mm 4 m/s 749 mmHg 84%
    09:00 +1°C° 0 mm 5 m/s 749 mmHg 80%
    10:00 +2°C° 0 mm 5 m/s 749 mmHg 76%
    11:00 +3°C° 0 mm 5 m/s 749 mmHg 74%
    12:00 +3°C° 0 mm 5 m/s 749 mmHg 71%
    13:00 +5°C° 0 mm 5 m/s 749 mmHg 69%
    14:00 +5°C° 0 mm 5 m/s 749 mmHg 71%
    15:00 +5°C° 0 mm 5 m/s 748 mmHg 73%
    16:00 +4°C° 0 mm 4 m/s 748 mmHg 75%
    17:00 +4°C° 0 mm 4 m/s 748 mmHg 77%
    18:00 +3°C° 0 mm 4 m/s 749 mmHg 80%
    19:00 +1°C° 0 mm 4 m/s 749 mmHg 82%
    20:00 +3°C° 0 mm 4 m/s 749 mmHg 82%
    21:00 +3°C° 0 mm 4 m/s 749 mmHg 82%
    22:00 +3°C° 0 mm 4 m/s 749 mmHg 82%
    23:00 +3°C° 0 mm 4 m/s 749 mmHg 83%
    Arată mai mult